This is the latest recevied weather packets stored in our database for station/object SV2RCS-13. If no packets are shown the sender has not sent any weather packets the latest 10 day(s).
| Time | Temp. | Humidity | Pressure | Rain* | Wind** | Luminosity | Snow |
|---|---|---|---|---|---|---|---|
| 1777654618 | 9.44° C | 52% | 1020.4 hPa | - | - | - | - |
| 1777654018 | 10° C | 51% | 1020.1 hPa | - | - | - | - |
| 1777653418 | 10° C | 51% | 1020 hPa | - | - | - | - |
| 1777652818 | 10° C | 52% | 1019.9 hPa | - | - | - | - |
| 1777652219 | 9.44° C | 53% | 1020 hPa | - | - | - | - |
| 1777651618 | 10° C | 54% | 1019.8 hPa | - | - | - | - |
| 1777651018 | 10° C | 54% | 1020.1 hPa | - | - | - | - |
| 1777650418 | 10° C | 53% | 1020.1 hPa | - | - | - | - |
| 1777649818 | 10° C | 50% | 1019.9 hPa | - | - | - | - |
| 1777649218 | 10° C | 47% | 1019.9 hPa | - | - | - | - |
| 1777648618 | 10° C | 48% | 1019.9 hPa | - | - | - | - |
| 1777648018 | 10° C | 45% | 1019.9 hPa | - | - | - | - |
| 1777647419 | 10° C | 47% | 1020 hPa | - | - | - | - |
| 1777646818 | 10° C | 45% | 1020 hPa | - | - | - | - |
| 1777646219 | 9.44° C | 46% | 1020.1 hPa | - | - | - | - |
| 1777645618 | 10° C | 46% | 1019.9 hPa | - | - | - | - |
| 1777645018 | 9.44° C | 46% | 1020 hPa | - | - | - | - |
| 1777644418 | 10° C | 45% | 1019.9 hPa | - | - | - | - |
| 1777643818 | 10° C | 46% | 1019.9 hPa | - | - | - | - |
| 1777643218 | 10° C | 45% | 1019.8 hPa | - | - | - | - |
| 1777642619 | 10° C | 45% | 1019.9 hPa | - | - | - | - |
| 1777642018 | 10° C | 44% | 1020 hPa | - | - | - | - |
| 1777641418 | 10° C | 44% | 1020.2 hPa | - | - | - | - |
| 1777640818 | 10.56° C | 43% | 1019.9 hPa | - | - | - | - |
| 1777640218 | 10.56° C | 41% | 1019.9 hPa | - | - | - | - |
* Rain since midnight (hover to see other rain measurements)
** Current wind speed in m/s (hover to see current wind gust speed)